FW3157 Weather Reports


Display with metric or nautical units.
time (UTC)temp
F
wind
direction
speed
MPH
gust
MPH
rain 1hr
in
rain 24hr
in
rain mn
in
humidity
%
barometer
mb
20260902223753 74 21 9.0 22.0 0.13 0.15 0.13 79 1016.3
20260902223247 74 25 11.0 22.0 0.13 0.15 0.13 79 1016.5
20260902222742 74 21 11.0 19.0 0.13 0.15 0.13 79 1016.6
20260902222235 74 55 10.0 19.0 0.13 0.15 0.13 80 1016.7
20260902221732 74 356 10.0 23.0 0.13 0.15 0.13 81 1016.9
20260902221231 75 41 9.0 23.0 0.12 0.13 0.12 80 1016.9
20260902221213 75 307 9.0 19.0 0.11 0.13 0.11 81 1016.6
20260902220230 75 25 9.0 18.0 0.11 0.13 0.11 82 1016.5
20260902215730 75 29 7.0 18.0 0.09 0.10 0.09 80 1016.9
20260902215230 75 352 7.0 20.0 0.08 0.09 0.09 81 1016.5
20260902214730 76 35 8.0 20.0 0.06 0.07 0.06 76 1016.2
20260902214230 77 18 6.0 12.0 0.02 0.04 0.02 73 1016.0
20260902213730 76 314 5.0 10.0 0.00 0.02 0.00 72 1016.2
20260902213230 76 347 5.0 10.0 0.00 0.02 0.00 72 1016.0
20260902212731 76 114 4.0 10.0 0.00 0.02 0.00 72 1015.4
20260902212228 76 64 3.0 9.0 0.00 0.02 0.00 73 1015.3
20260902211728 76 37 4.0 10.0 0.00 0.02 0.00 73 1015.3
20260902211227 76 79 5.0 12.0 0.00 0.02 0.00 74 1015.2
20260902210728 75 58 6.0 12.0 0.00 0.02 0.00 75 1015.1
20260902210227 75 93 6.0 14.0 0.00 0.02 0.00 75 1015.4
20260902205728 75 77 8.0 15.0 0.00 0.02 0.02 74 1015.2
20260902205222 75 23 8.0 19.0 0.00 0.02 0.02 74 1015.5
20260902204715 76 29 7.0 17.0 0.00 0.02 0.02 72 1015.5
20260902204435 76 60 6.0 16.0 0.00 0.02 0.02 71 1015.3
20260902203704 77 79 5.0 14.0 0.00 0.02 0.02 69 1015.1
20260902203422 77 59 6.0 18.0 0.00 0.02 0.02 68 1015.0
20260902202652 76 32 11.0 20.0 0.00 0.02 0.02 72 1015.0
20260902202145 77 49 9.0 20.0 0.00 0.02 0.02 70 1015.0
20260902201639 79 327 6.0 15.0 0.00 0.02 0.02 68 1015.0
20260902201133 80 315 5.0 15.0 0.00 0.02 0.02 74 1015.3
20260902200628 81 314 3.0 9.0 0.00 0.02 0.02 75 1015.3
20260902200342 81 311 2.0 5.0 0.00 0.02 0.02 74 1015.1
20260902195616 81 300 1.0 3.0 0.00 0.02 0.02 72 1015.0
20260902195109 82 86 1.0 4.0 0.00 0.02 0.02 71 1014.9
20260902194603 82 78 2.0 5.0 0.00 0.02 0.02 70 1014.9
20260902194057 82 41 2.0 5.0 0.00 0.02 0.02 70 1014.9
20260902193551 82 115 1.0 4.0 0.00 0.02 0.02 66 1014.9
20260902193046 83 148 2.0 5.0 0.00 0.02 0.02 66 1015.0
20260902192540 83 151 2.0 5.0 0.00 0.02 0.02 66 1014.9
20260902192033 83 84 2.0 4.0 0.00 0.02 0.02 66 1014.8
20260902191528 83 143 2.0 5.0 0.00 0.02 0.02 66 1014.8
20260902191021 83 212 2.0 5.0 0.00 0.02 0.02 66 1014.7
20260902190515 83 198 2.0 7.0 0.00 0.02 0.02 66 1014.7
20260902190011 83 216 2.0 7.0 0.00 0.02 0.02 65 1014.9
20260902185504 83 227 1.0 3.0 0.00 0.02 0.02 65 1015.0
20260902185001 83 215 1.0 3.0 0.00 0.02 0.02 63 1015.0
20260902184502 83 181 1.0 3.0 0.00 0.02 0.02 62 1014.9
20260902184002 83 208 1.0 2.0 0.00 0.02 0.02 63 1014.9
20260902183502 83 140 0.0 2.0 0.00 0.02 0.02 63 1014.9
20260902183002 83 225 0.0 2.0 0.00 0.02 0.02 64 1014.8
20260902182502 83 148 1.0 4.0 0.00 0.02 0.02 64 1014.9
20260902182001 83 193 1.0 4.0 0.00 0.02 0.02 63 1014.8
20260902181501 83 91 1.0 3.0 0.00 0.02 0.02 64 1014.8
20260902181002 83 155 2.0 5.0 0.00 0.02 0.02 64 1014.7
20260902180503 84 244 2.0 5.0 0.00 0.02 0.02 64 1014.6
20260902180234 84 106 2.0 8.0 0.00 0.02 0.02 63 1014.6
20260902175500 84 133 2.0 8.0 0.00 0.02 0.02 63 1014.6
20260902175001 84 203 3.0 7.0 0.00 0.02 0.02 63 1014.5
20260902174459 84 109 2.0 6.0 0.00 0.02 0.02 64 1014.3
20260902173959 84 193 3.0 9.0 0.00 0.02 0.02 64 1014.4
20260902173453 84 191 5.0 10.0 0.00 0.02 0.02 63 1014.4
20260902173212 84 116 4.0 10.0 0.00 0.02 0.02 63 1014.3
20260902172441 84 179 3.0 8.0 0.00 0.02 0.02 64 1014.3
20260902172154 84 87 3.0 8.0 0.00 0.02 0.02 64 1014.3
20260902171430 84 89 3.0 8.0 0.00 0.02 0.02 64 1014.2
20260902170923 84 225 4.0 8.0 0.00 0.02 0.02 65 1014.2
20260902170417 85 204 3.0 8.0 0.00 0.02 0.02 64 1014.3
20260902165914 85 146 3.0 8.0 0.00 0.02 0.02 64 1014.3
20260902165414 85 122 3.0 6.0 0.00 0.02 0.02 64 1014.3
20260902164913 85 236 3.0 7.0 0.00 0.02 0.02 62 1014.2
20260902164414 85 235 3.0 7.0 0.00 0.02 0.02 61 1014.3
20260902163913 85 245 3.0 8.0 0.00 0.02 0.02 59 1014.2
20260902163633 85 226 3.0 12.0 0.00 0.02 0.02 58 1014.3
20260902163139 86 137 3.0 12.0 0.00 0.02 0.02 58 1014.2
20260902162414 86 156 3.0 8.0 0.00 0.02 0.02 59 1014.1
20260902161913 86 104 3.0 8.0 0.00 0.02 0.02 59 1014.1
20260902161414 86 143 2.0 7.0 0.00 0.02 0.02 61 1014.2
20260902161137 86 225 2.0 7.0 0.00 0.02 0.02 60 1014.2
20260902160414 86 169 3.0 7.0 0.00 0.02 0.02 58 1014.2
20260902155913 87 236 3.0 9.0 0.00 0.02 0.02 60 1014.3
20260902155723 87 124 4.0 9.0 0.00 0.02 0.02 59 1014.3
20260902155618 87 217 4.0 10.0 0.00 0.02 0.02 59 1014.4
20260902154414 87 217 5.0 10.0 0.00 0.02 0.02 59 1014.4
20260902153914 87 161 5.0 10.0 0.00 0.02 0.02 57 1014.4
20260902153414 88 233 5.0 11.0 0.00 0.02 0.02 55 1014.3
20260902152914 88 195 5.0 11.0 0.00 0.02 0.02 53 1014.1
20260902152414 89 210 4.0 11.0 0.00 0.02 0.02 52 1014.1
20260902151911 89 219 4.0 10.0 0.00 0.02 0.02 51 1013.9
20260902151631 89 104 4.0 11.0 0.00 0.02 0.02 50 1013.8
20260902151136 90 188 5.0 11.0 0.00 0.02 0.02 49 1013.8
20260902150411 90 236 6.0 12.0 0.00 0.02 0.02 48 1013.9
20260902145911 90 236 5.0 12.0 0.00 0.02 0.02 49 1013.9
20260902145411 91 222 5.0 10.0 0.00 0.02 0.02 48 1013.9
20260902144910 91 246 5.0 11.0 0.00 0.02 0.02 48 1014.0
20260902144409 91 203 5.0 12.0 0.00 0.02 0.02 49 1014.1
20260902143908 91 240 5.0 13.0 0.00 0.02 0.02 49 1014.1
20260902143901 91 227 5.0 13.0 0.00 0.02 0.02 50 1014.0
20260902142907 91 203 4.0 12.0 0.00 0.02 0.02 50 1014.0
20260902142407 91 129 4.0 12.0 0.00 0.02 0.02 50 1014.1
20260902141905 91 202 4.0 9.0 0.00 0.02 0.02 49 1014.0
20260902141404 91 205 3.0 12.0 0.00 0.02 0.02 47 1014.1
20260902140903 91 304 3.0 12.0 0.00 0.02 0.02 47 1014.2
20260902140403 92 234 4.0 11.0 0.00 0.02 0.02 44 1014.2
20260902140128 92 224 5.0 11.0 0.00 0.02 0.02 43 1014.3
20260902135402 92 212 4.0 10.0 0.00 0.02 0.02 42 1014.4
20260902134901 93 189 3.0 7.0 0.00 0.02 0.02 41 1014.5
20260902134402 93 280 4.0 11.0 0.00 0.02 0.02 41 1014.6
20260902133900 93 241 5.0 12.0 0.00 0.02 0.02 41 1014.6
20260902133401 93 197 5.0 10.0 0.00 0.02 0.02 40 1014.6
20260902132900 94 176 4.0 10.0 0.00 0.02 0.02 40 1014.7
20260902132358 94 225 3.0 8.0 0.00 0.02 0.02 39 1014.7
20260902131857 94 231 3.0 9.0 0.00 0.02 0.02 39 1014.7
20260902131358 94 198 3.0 10.0 0.00 0.02 0.02 38 1014.7
20260902131115 94 255 3.0 10.0 0.00 0.02 0.02 39 1014.7
20260902130358 95 234 2.0 7.0 0.00 0.02 0.02 39 1014.8
20260902125857 94 217 2.0 7.0 0.00 0.02 0.02 41 1014.8
20260902125350 94 215 2.0 7.0 0.00 0.02 0.02 41 1014.8
20260902124844 94 238 3.0 9.0 0.00 0.02 0.02 41 1014.9
20260902124338 94 261 2.0 9.0 0.00 0.02 0.02 41 1015.0
20260902123833 93 213 2.0 7.0 0.00 0.02 0.02 44 1015.1
20260902123327 92 206 3.0 7.0 0.00 0.02 0.02 47 1015.1
20260902123044 92 198 2.0 6.0 0.00 0.02 0.02 45 1015.3
20260902122315 92 278 3.0 6.0 0.00 0.02 0.02 50 1015.4
20260902121808 91 222 4.0 7.0 0.00 0.02 0.02 51 1015.5
20260902121302 91 244 3.0 7.0 0.00 0.02 0.02 52 1015.5
20260902120757 92 266 3.0 6.0 0.00 0.02 0.02 52 1015.6
20260902120250 91 243 3.0 7.0 0.00 0.02 0.02 52 1015.7
20260902115745 91 254 3.0 8.0 0.00 0.02 0.02 50 1015.8
20260902115239 91 140 3.0 9.0 0.00 0.02 0.02 53 1015.8
20260902114732 90 221 3.0 8.0 0.00 0.02 0.02 54 1015.9
20260902114446 90 254 4.0 9.0 0.00 0.02 0.02 55 1016.1
20260902113721 89 271 5.0 10.0 0.00 0.02 0.02 57 1016.1
20260902113214 88 202 5.0 10.0 0.00 0.02 0.02 59 1016.2
20260902112931 89 258 4.0 10.0 0.00 0.02 0.02 58 1016.3
20260902112203 89 252 4.0 10.0 0.00 0.02 0.02 59 1016.3
20260902111656 88 274 4.0 9.0 0.00 0.02 0.02 61 1016.4
20260902111150 88 255 4.0 9.0 0.00 0.02 0.02 60 1016.4
20260902110912 88 221 5.0 10.0 0.00 0.02 0.02 58 1016.4
20260902110139 88 233 5.0 10.0 0.00 0.02 0.02 59 1016.5
20260902105852 88 256 4.0 9.0 0.00 0.02 0.02 57 1016.6
20260902105126 89 270 4.0 9.0 0.00 0.02 0.02 56 1016.7
20260902104620 88 222 5.0 10.0 0.00 0.02 0.02 55 1016.6
20260902104119 88 240 4.0 10.0 0.00 0.02 0.02 54 1016.7
20260902103619 89 236 3.0 9.0 0.00 0.02 0.02 53 1016.6
20260902103117 89 253 3.0 9.0 0.00 0.02 0.02 53 1016.7
20260902102619 89 236 4.0 9.0 0.00 0.02 0.02 57 1016.7
20260902102117 89 105 3.0 8.0 0.00 0.02 0.02 58 1016.7
20260902101615 89 219 3.0 7.0 0.00 0.02 0.02 58 1016.9
20260902101115 88 240 4.0 7.0 0.00 0.02 0.02 59 1016.9
20260902100616 88 247 4.0 7.0 0.00 0.02 0.02 59 1016.9
20260902100114 87 236 4.0 7.0 0.00 0.02 0.02 59 1016.9
20260902095615 87 261 3.0 7.0 0.00 0.02 0.02 61 1017.0
20260902095333 88 280 2.0 6.0 0.00 0.02 0.02 60 1016.9
20260902094616 88 212 2.0 5.0 0.00 0.02 0.02 60 1017.0
20260902094113 88 213 2.0 5.0 0.00 0.02 0.02 60 1017.1
20260902093613 88 195 2.0 4.0 0.00 0.02 0.02 61 1017.2
20260902093114 88 210 2.0 4.0 0.00 0.02 0.02 61 1017.2
20260902092612 88 226 2.0 5.0 0.00 0.02 0.02 61 1017.2
20260902092112 87 225 3.0 5.0 0.00 0.02 0.02 63 1017.3
20260902091612 87 207 2.0 5.0 0.00 0.02 0.02 62 1017.3
20260902091106 88 150 2.0 4.0 0.00 0.02 0.02 62 1017.4
20260902090600 87 212 1.0 4.0 0.00 0.02 0.02 61 1017.3
20260902090054 87 217 1.0 3.0 0.00 0.02 0.02 62 1017.3
20260902085548 86 301 2.0 3.0 0.00 0.02 0.02 63 1017.3
20260902085042 86 266 2.0 4.0 0.00 0.02 0.02 62 1017.3
20260902084536 86 272 2.0 4.0 0.00 0.02 0.02 62 1017.4
20260902084030 85 235 1.0 4.0 0.00 0.02 0.02 64 1017.3
20260902083529 86 248 1.0 4.0 0.00 0.02 0.02 62 1017.3
20260902083027 86 217 1.0 4.0 0.00 0.02 0.02 63 1017.3
20260902082525 85 105 1.0 4.0 0.00 0.02 0.02 66 1017.4
20260902082025 85 210 2.0 4.0 0.00 0.02 0.02 66 1017.4
20260902081525 85 194 2.0 5.0 0.00 0.02 0.02 66 1017.3
20260902081025 84 162 2.0 5.0 0.00 0.02 0.02 67 1017.3
20260902080524 84 192 3.0 6.0 0.00 0.02 0.02 68 1017.3
20260902080025 83 250 3.0 6.0 0.00 0.02 0.02 68 1017.3
20260902075524 83 256 2.0 5.0 0.00 0.02 0.02 68 1017.3
20260902075024 83 249 2.0 4.0 0.00 0.02 0.02 69 1017.4
20260902074525 83 275 2.0 4.0 0.00 0.02 0.02 69 1017.4
20260902074025 83 273 2.0 4.0 0.00 0.02 0.02 69 1017.4
20260902073526 82 286 2.0 4.0 0.00 0.02 0.02 69 1017.3
20260902073025 82 288 2.0 3.0 0.00 0.02 0.02 69 1017.3
20260902072525 82 305 2.0 5.0 0.00 0.02 0.02 70 1017.2
20260902072023 82 274 2.0 5.0 0.00 0.02 0.02 70 1017.1
20260902071521 82 277 1.0 4.0 0.00 0.02 0.02 71 1017.2
20260902071017 81 242 1.0 3.0 0.00 0.02 0.02 74 1017.1
20260902070517 81 266 1.0 3.0 0.00 0.02 0.02 74 1017.2
20260902070017 80 285 1.0 3.0 0.00 0.02 0.02 76 1017.2
20260902065516 80 295 1.0 4.0 0.00 0.02 0.02 78 1017.2
20260902065017 80 309 1.0 4.0 0.00 0.02 0.02 77 1017.2
20260902064517 80 264 1.0 4.0 0.00 0.02 0.02 77 1017.2
20260902064237 80 299 2.0 4.0 0.00 0.02 0.02 78 1017.1
20260902063517 80 288 2.0 4.0 0.00 0.02 0.02 79 1017.1
20260902063017 80 308 2.0 4.0 0.00 0.02 0.02 79 1017.1
20260902062513 80 271 2.0 4.0 0.00 0.02 0.02 78 1017.1
20260902062013 80 276 1.0 4.0 0.00 0.02 0.02 77 1017.2
20260902061737 80 228 1.0 3.0 0.00 0.02 0.02 78 1017.2
20260902061236 80 228 1.0 3.0 0.00 0.02 0.02 78 1017.1
20260902060513 79 243 3.0 5.0 0.00 0.02 0.02 79 1017.1
20260902060012 78 247 3.0 5.0 0.00 0.02 0.02 80 1017.1
20260902055512 78 210 3.0 5.0 0.00 0.02 0.02 80 1017.1
20260902055012 78 248 3.0 5.0 0.00 0.02 0.02 81 1017.1
20260902054738 78 270 2.0 5.0 0.00 0.02 0.02 81 1017.1
20260902054006 78 255 2.0 4.0 0.00 0.02 0.02 81 1017.1
20260902053459 78 258 2.0 6.0 0.00 0.02 0.02 81 1017.1
20260902052954 79 276 2.0 6.0 0.00 0.02 0.02 80 1017.1
20260902052448 79 233 0.0 3.0 0.00 0.02 0.02 78 1017.2
20260902052205 79 4 0.0 1.0 0.00 0.02 0.02 78 1017.2
20260902051434 79 3 0.0 2.0 0.00 0.02 0.02 79 1017.1
20260902050932 78 1 1.0 2.0 0.00 0.02 0.02 80 1017.0
20260902050914 78 324 0.0 1.0 0.00 0.02 0.02 81 1016.9
20260902045932 78 262 0.0 1.0 0.00 0.02 0.02 81 1017.0
20260902045429 78 262 1.0 2.0 0.00 0.02 0.02 81 1017.0
20260902044929 78 262 1.0 2.0 0.00 0.02 0.02 81 1017.0
20260902044428 78 259 1.0 2.0 0.00 0.02 0.02 82 1016.9
20260902043927 77 267 2.0 3.0 0.00 0.02 0.02 83 1016.9
20260902043428 77 253 2.0 4.0 0.00 0.02 0.02 83 1016.9
20260902042926 77 271 2.0 4.0 0.00 0.02 0.02 83 1016.7
20260902042424 77 264 2.0 4.0 0.00 0.02 0.02 83 1016.6
20260902041923 77 291 3.0 5.0 0.00 0.02 0.02 84 1016.7
20260902041423 77 229 2.0 6.0 0.00 0.02 0.02 84 1016.7
20260902040922 77 306 1.0 6.0 0.00 0.02 0.02 84 1016.6
20260902040420 76 98 0.0 2.0 0.00 0.02 0.02 83 1016.6
20260902035918 76 98 0.0 1.0 0.00 0.02 0.02 84 1016.6
20260902035418 77 98 1.0 2.0 0.00 0.02 0.02 83 1016.5
20260902034918 77 98 1.0 2.0 0.00 0.02 0.02 83 1016.5
20260902034419 77 98 1.0 2.0 0.00 0.02 0.02 82 1016.5
20260902033913 77 98 2.0 3.0 0.00 0.02 0.02 82 1016.4
20260902033407 77 108 1.0 3.0 0.00 0.02 0.02 81 1016.4
20260902032901 77 98 1.0 2.0 0.00 0.02 0.02 81 1016.4
20260902032355 78 100 1.0 2.0 0.00 0.02 0.02 80 1016.4
20260902031849 78 102 1.0 2.0 0.00 0.02 0.02 79 1016.3
20260902031343 78 86 1.0 2.0 0.00 0.02 0.02 77 1016.3
20260902030837 78 86 1.0 2.0 0.00 0.02 0.02 75 1016.3
20260902030331 78 81 1.0 3.0 0.00 0.02 0.02 76 1016.3
20260902025825 77 81 2.0 4.0 0.00 0.02 0.02 77 1016.3
20260902025320 78 75 2.0 4.0 0.00 0.02 0.02 77 1016.3
20260902024813 78 21 1.0 3.0 0.00 0.02 0.02 77 1016.3
20260902024307 78 144 1.0 5.0 0.00 0.02 0.02 77 1016.3
20260902023801 78 91 1.0 5.0 0.00 0.02 0.02 77 1016.2
20260902023255 78 117 1.0 3.0 0.00 0.02 0.02 76 1016.2
20260902022750 78 99 1.0 3.0 0.01 0.02 0.02 76 1016.2
20260902022243 78 98 0.0 2.0 0.02 0.02 0.02 76 1016.3
20260902021957 78 98 1.0 6.0 0.02 0.02 0.02 76 1016.3
20260902021231 78 188 1.0 6.0 0.02 0.02 0.02 75 1016.3
20260902020725 78 177 1.0 5.0 0.02 0.02 0.02 76 1016.4
20260902020220 78 88 1.0 6.0 0.02 0.02 0.02 77 1016.3
20260902015713 79 155 2.0 6.0 0.02 0.02 0.02 78 1016.1
20260902015208 79 153 3.0 6.0 0.02 0.02 0.02 78 1016.0
20260902015149 79 127 3.0 8.0 0.02 0.02 0.02 77 1016.0
20260902014155 78 109 2.0 7.0 0.02 0.02 0.02 76 1015.9
20260902013649 79 86 2.0 8.0 0.02 0.02 0.02 74 1016.1
20260902013143 80 359 4.0 13.0 0.02 0.02 0.02 73 1016.1
20260902012854 81 90 1.0 5.0 0.00 0.00 0.00 69 1016.0
20260902012732 81 63 4.0 13.0 0.01 0.01 0.01 71 1016.1
20260902011848 81 103 1.0 3.0 0.00 0.00 0.00 69 1016.0
20260902011119 81 96 2.0 6.0 0.00 0.00 0.00 69 1016.0
20260902010613 81 85 3.0 6.0 0.00 0.00 0.00 69 1016.0
20260902010107 81 77 3.0 7.0 0.00 0.00 0.00 71 1016.1
20260902005602 81 353 4.0 7.0 0.00 0.00 0.00 72 1016.1
20260902005055 81 302 4.0 8.0 0.00 0.00 0.00 75 1016.1
20260902004549 81 300 4.0 8.0 0.00 0.00 0.00 75 1016.1
20260902004044 81 276 4.0 8.0 0.00 0.00 0.00 75 1016.1
20260902003538 81 280 4.0 8.0 0.00 0.00 0.00 75 1016.0
20260902003510 80 286 4.0 9.0 0.00 0.00 0.00 76 1016.0
20260902002748 80 280 5.0 9.0 0.00 0.00 0.00 77 1016.1
20260902002028 81 293 4.0 8.0 0.00 0.00 0.00 78 1016.1
20260902001528 81 283 3.0 8.0 0.00 0.00 0.00 77 1016.0
20260902001028 80 266 3.0 7.0 0.00 0.00 0.00 77 1016.0
20260902000528 81 284 4.0 7.0 0.00 0.00 0.00 78 1016.0
20260902000028 80 284 4.0 6.0 0.00 0.00 0.00 78 1016.0
20260902000008 80 280 3.0 6.0 0.00 0.00 0.00 78 1015.9
20260901235028 80 279 2.0 6.0 0.00 0.00 0.00 76 1015.9
20260901234528 81 316 3.0 7.0 0.00 0.00 0.00 76 1015.9
20260901234028 80 283 4.0 7.0 0.00 0.00 0.00 75 1015.8
20260901233529 81 283 4.0 7.0 0.00 0.00 0.00 74 1015.8
20260901233029 81 302 4.0 6.0 0.00 0.00 0.00 73 1015.7
20260901232529 81 305 4.0 6.0 0.00 0.00 0.00 72 1015.7
20260901232028 81 278 4.0 6.0 0.00 0.00 0.00 73 1015.7
20260901231528 81 304 4.0 6.0 0.00 0.00 0.00 74 1015.7
20260901231027 81 316 4.0 6.0 0.00 0.00 0.00 74 1015.8
20260901230526 81 299 4.0 7.0 0.00 0.00 0.00 75 1015.7
20260901230026 81 297 4.0 7.0 0.00 0.00 0.00 75 1015.8
20260901225526 81 284 4.0 7.0 0.00 0.00 0.00 75 1015.8
20260901225246 81 297 4.0 9.0 0.00 0.00 0.00 76 1015.8
20260901224523 81 318 4.0 9.0 0.00 0.00 0.00 76 1015.7
20260901224024 81 307 4.0 6.0 0.00 0.00 0.00 76 1015.7